STARLINK-2438

decayed
NORAD ID: 48103 Int'l Des: 2021-027 Owner: SPXS Country: US Constellation: starlink
LEOCIRCULAR
グループ

STARLINK-2438について

説明を読み込み中...

高度履歴

Altitude vs Time

uPlot chart will show altitude changes over time

軌道要素

1 48103U 21027M 24199.52200852 .27610719 12343-4 29456-2 0 9995
2 48103 53.0228 234.3624 0004658 334.7729 174.1970 16.36724891183121
Epoch: Jul 17, 2024 • Age: 10054 hours

現在のステータス

Position data unavailable
打ち上げ日 Apr 7, 2021
運用期間 4.4 years
落下予定日 Jul 17, 2024
タイプ internet

技術仕様

分類 Payload
質量 260.00 kg
乾燥質量 248.00 kg
総質量 260.00 kg
長さ 0.20 m
直径 2.80 m
スパン 9.00 m
形状 Box + pan
製造者 SPXS
バスタイプ Starlink
フェーズステータス Reentered
所有者/国 SPXS/US

大規模コンステレーション

Loading constellations...